| time (UTC) | temp C | wind direction | speed KPH | gust KPH | rain 1hr cm | rain 24hr cm | rain mn cm | humidity % | barometer mb |
| 20260502151519 | 5 | 264 | 3.2 | 9.7 | 0.00 | 0.05 | 0.00 | 54 | 983.7 |
| 20260502150539 | 5 | 296 | 1.6 | 8.0 | 0.00 | 0.05 | 0.00 | 54 | 983.8 |
| 20260502130521 | 2 | 300 | 1.6 | 4.8 | 0.00 | 0.05 | 0.00 | 70 | 985.2 |
| 20260502123540 | 1 | 300 | 0.0 | 1.6 | 0.00 | 0.05 | 0.00 | 71 | 985.3 |
| 20260502122518 | 1 | 55 | 1.6 | 4.8 | 0.00 | 0.05 | 0.00 | 72 | 985.2 |
| 20260502121521 | 1 | 42 | 1.6 | 3.2 | 0.00 | 0.05 | 0.00 | 72 | 985.3 |
| 20260502120518 | 1 | 334 | 1.6 | 3.2 | 0.00 | 0.05 | 0.00 | 73 | 985.3 |
| 20260502115519 | 1 | 351 | 1.6 | 4.8 | 0.00 | 0.05 | 0.00 | 74 | 985.3 |
| 20260502114518 | 0 | 283 | 1.6 | 4.8 | 0.00 | 0.05 | 0.00 | 76 | 985.4 |
| 20260502113540 | 0 | 312 | 1.6 | 4.8 | 0.00 | 0.05 | 0.00 | 76 | 985.2 |
| 20260502112519 | 0 | 359 | 1.6 | 6.4 | 0.00 | 0.05 | 0.00 | 78 | 985.3 |
| 20260502111540 | 0 | 304 | 0.0 | 3.2 | 0.00 | 0.05 | 0.00 | 79 | 985.3 |
| 20260502110519 | 0 | 322 | 0.0 | 1.6 | 0.00 | 0.05 | 0.00 | 80 | 985.4 |
| 20260502105519 | 0 | 316 | 0.0 | 3.2 | 0.00 | 0.05 | 0.00 | 79 | 985.3 |
| 20260502104519 | 0 | 18 | 0.0 | 3.2 | 0.00 | 0.05 | 0.00 | 78 | 985.2 |
| 20260502103520 | 1 | 42 | 0.0 | 3.2 | 0.00 | 0.05 | 0.00 | 76 | 985.2 |
| 20260502102518 | 1 | 299 | 0.0 | 3.2 | 0.00 | 0.05 | 0.00 | 76 | 984.9 |
| 20260502101520 | 1 | 48 | 1.6 | 3.2 | 0.00 | 0.05 | 0.00 | 75 | 984.7 |
| 20260502100520 | 1 | 48 | 1.6 | 4.8 | 0.00 | 0.05 | 0.00 | 74 | 984.6 |
| 20260502091520 | 1 | 25 | 0.0 | 3.2 | 0.00 | 0.05 | 0.00 | 74 | 984.4 |
| 20260502090520 | 1 | 0.0 | 0.0 | 0.00 | 0.05 | 0.00 | 74 | 984.4 | |
| 20260502071519 | 2 | 63 | 1.6 | 4.8 | 0.00 | 0.05 | 0.00 | 69 | 984.0 |
| 20260502070519 | 2 | 66 | 0.0 | 3.2 | 0.00 | 0.05 | 0.00 | 70 | 984.1 |
| 20260502065519 | 2 | 346 | 0.0 | 3.2 | 0.00 | 0.05 | 0.00 | 70 | 984.0 |
| 20260502064539 | 2 | 54 | 0.0 | 3.2 | 0.00 | 0.05 | 0.00 | 71 | 984.1 |
| 20260502063520 | 2 | 56 | 0.0 | 3.2 | 0.00 | 0.05 | 0.00 | 75 | 984.1 |
| 20260502062536 | 2 | 74 | 0.0 | 0.0 | 0.00 | 0.05 | 0.00 | 78 | 984.1 |
| 20260502061520 | 2 | 54 | 0.0 | 3.2 | 0.00 | 0.05 | 0.00 | 75 | 984.1 |
| 20260502060519 | 2 | 37 | 0.0 | 1.6 | 0.00 | 0.05 | 0.00 | 76 | 984.1 |
| 20260502055520 | 2 | 0.0 | 0.0 | 0.00 | 0.05 | 0.00 | 77 | 984.0 | |
| 20260502054520 | 2 | 22 | 0.0 | 3.2 | 0.00 | 0.05 | 0.00 | 76 | 984.0 |
| 20260502053519 | 2 | 54 | 0.0 | 1.6 | 0.00 | 0.05 | 0.00 | 78 | 984.1 |
| 20260502052517 | 2 | 83 | 0.0 | 1.6 | 0.00 | 0.05 | 0.00 | 79 | 984.1 |
| 20260502051520 | 2 | 50 | 0.0 | 1.6 | 0.00 | 0.05 | 0.00 | 76 | 984.1 |
| 20260502050520 | 2 | 75 | 0.0 | 3.2 | 0.00 | 0.05 | 0.00 | 75 | 984.1 |
| 20260502045520 | 2 | 65 | 0.0 | 1.6 | 0.00 | 0.05 | 0.00 | 75 | 984.1 |
| 20260502044518 | 2 | 56 | 1.6 | 8.0 | 0.00 | 0.05 | 0.00 | 74 | 984.1 |
| 20260502043518 | 2 | 339 | 0.0 | 4.8 | 0.00 | 0.05 | 0.00 | 75 | 984.0 |
| 20260502042518 | 2 | 41 | 1.6 | 6.4 | 0.00 | 0.05 | 0.00 | 74 | 983.9 |
| 20260502041518 | 2 | 68 | 1.6 | 4.8 | 0.00 | 0.05 | 0.00 | 75 | 983.9 |
| 20260502040518 | 2 | 50 | 3.2 | 8.0 | 0.00 | 0.05 | 0.00 | 75 | 983.9 |
| 20260502035518 | 2 | 64 | 3.2 | 8.0 | 0.00 | 0.05 | 0.05 | 76 | 983.9 |
| 20260502034518 | 2 | 58 | 1.6 | 3.2 | 0.00 | 0.05 | 0.05 | 78 | 983.9 |
| 20260502033519 | 2 | 45 | 0.0 | 3.2 | 0.00 | 0.05 | 0.05 | 89 | 983.8 |
| 20260502032519 | 2 | 60 | 0.0 | 3.2 | 0.00 | 0.05 | 0.05 | 90 | 983.8 |
| 20260502031518 | 2 | 310 | 0.0 | 0.0 | 0.00 | 0.05 | 0.05 | 91 | 983.8 |
| 20260502030520 | 2 | 340 | 0.0 | 1.6 | 0.00 | 0.05 | 0.05 | 90 | 983.8 |
| 20260502025519 | 2 | 281 | 0.0 | 1.6 | 0.00 | 0.05 | 0.05 | 90 | 983.9 |
| 20260502024519 | 2 | 0.0 | 0.0 | 0.00 | 0.05 | 0.05 | 90 | 983.9 | |
| 20260502023519 | 2 | 338 | 0.0 | 0.0 | 0.00 | 0.05 | 0.05 | 90 | 983.9 |
| 20260502022519 | 2 | 318 | 0.0 | 1.6 | 0.00 | 0.05 | 0.05 | 89 | 983.9 |
| 20260502021520 | 2 | 0.0 | 0.0 | 0.00 | 0.05 | 0.05 | 89 | 983.9 | |
| 20260502020520 | 2 | 63 | 0.0 | 1.6 | 0.00 | 0.05 | 0.05 | 89 | 983.8 |
| 20260502015517 | 2 | 231 | 0.0 | 1.6 | 0.00 | 0.05 | 0.05 | 87 | 983.9 |
| 20260502014518 | 2 | 13 | 0.0 | 3.2 | 0.00 | 0.05 | 0.05 | 87 | 984.0 |
| 20260502013520 | 2 | 17 | 1.6 | 3.2 | 0.00 | 0.05 | 0.05 | 87 | 983.9 |
| 20260502012520 | 2 | 51 | 1.6 | 6.4 | 0.00 | 0.05 | 0.05 | 87 | 983.8 |
| 20260502011518 | 3 | 47 | 1.6 | 4.8 | 0.00 | 0.05 | 0.05 | 86 | 983.7 |
| 20260502010518 | 3 | 324 | 1.6 | 4.8 | 0.00 | 0.05 | 0.05 | 85 | 983.7 |
| 20260502005558 | 3 | 50 | 1.6 | 4.8 | 0.00 | 0.05 | 0.05 | 85 | 983.6 |
| 20260502004518 | 3 | 50 | 1.6 | 8.0 | 0.00 | 0.05 | 0.05 | 85 | 983.6 |
| 20260502003523 | 3 | 60 | 1.6 | 4.8 | 0.00 | 0.05 | 0.05 | 85 | 983.5 |
| 20260502002519 | 3 | 312 | 1.6 | 4.8 | 0.00 | 0.05 | 0.05 | 84 | 983.5 |
| 20260502001518 | 3 | 14 | 0.0 | 3.2 | 0.00 | 0.05 | 0.05 | 85 | 983.4 |
| 20260502000518 | 3 | 25 | 1.6 | 4.8 | 0.00 | 0.05 | 0.05 | 84 | 983.3 |
| 20260501235518 | 3 | 14 | 0.0 | 3.2 | 0.00 | 0.05 | 0.05 | 84 | 983.1 |
| 20260501234519 | 3 | 15 | 0.0 | 3.2 | 0.00 | 0.05 | 0.05 | 84 | 983.0 |
| 20260501233520 | 3 | 15 | 0.0 | 1.6 | 0.00 | 0.05 | 0.05 | 84 | 983.0 |
| 20260501232519 | 3 | 321 | 0.0 | 1.6 | 0.00 | 0.05 | 0.05 | 83 | 983.0 |
| 20260501231539 | 3 | 305 | 0.0 | 4.8 | 0.00 | 0.05 | 0.05 | 82 | 983.0 |
| 20260501230519 | 3 | 300 | 0.0 | 1.6 | 0.00 | 0.05 | 0.05 | 82 | 982.9 |
| 20260501225600 | 3 | 297 | 0.0 | 1.6 | 0.00 | 0.05 | 0.05 | 81 | 982.8 |
| 20260501224519 | 3 | 53 | 0.0 | 3.2 | 0.00 | 0.05 | 0.05 | 81 | 982.7 |
| 20260501223520 | 3 | 12 | 0.0 | 1.6 | 0.00 | 0.05 | 0.05 | 82 | 982.6 |
| 20260501222519 | 3 | 9 | 0.0 | 1.6 | 0.00 | 0.05 | 0.05 | 83 | 982.5 |
| 20260501221520 | 3 | 358 | 0.0 | 3.2 | 0.00 | 0.05 | 0.05 | 86 | 982.5 |
| 20260501220540 | 3 | 47 | 0.0 | 1.6 | 0.00 | 0.05 | 0.05 | 87 | 982.6 |
| 20260501215517 | 3 | 13 | 0.0 | 1.6 | 0.00 | 0.05 | 0.05 | 87 | 982.6 |
| 20260501214520 | 3 | 302 | 0.0 | 1.6 | 0.00 | 0.05 | 0.05 | 88 | 982.6 |
| 20260501213522 | 3 | 36 | 0.0 | 1.6 | 0.03 | 0.05 | 0.05 | 87 | 982.7 |
| 20260501212520 | 3 | 8 | 0.0 | 1.6 | 0.03 | 0.05 | 0.05 | 87 | 982.7 |
| 20260501211517 | 3 | 61 | 0.0 | 1.6 | 0.05 | 0.05 | 0.05 | 89 | 982.7 |
| 20260501210559 | 3 | 111 | 0.0 | 1.6 | 0.05 | 0.05 | 0.05 | 89 | 982.7 |
| 20260501205518 | 3 | 86 | 0.0 | 1.6 | 0.05 | 0.05 | 0.05 | 88 | 982.9 |
| 20260501204521 | 3 | 87 | 0.0 | 1.6 | 0.05 | 0.05 | 0.05 | 87 | 982.9 |
| 20260501203519 | 3 | 284 | 0.0 | 1.6 | 0.03 | 0.03 | 0.03 | 85 | 983.0 |
| 20260501202518 | 3 | 303 | 0.0 | 3.2 | 0.03 | 0.03 | 0.03 | 83 | 983.0 |
| 20260501201540 | 3 | 307 | 0.0 | 3.2 | 0.00 | 0.00 | 0.00 | 80 | 983.0 |
| 20260501200518 | 4 | 278 | 0.0 | 3.2 | 0.00 | 0.00 | 0.00 | 76 | 983.1 |
| 20260501195520 | 4 | 319 | 0.0 | 3.2 | 0.00 | 0.00 | 0.00 | 73 | 982.8 |
| 20260501194519 | 5 | 266 | 1.6 | 4.8 | 0.00 | 0.00 | 0.00 | 70 | 982.7 |
| 20260501193519 | 5 | 350 | 1.6 | 4.8 | 0.00 | 0.00 | 0.00 | 70 | 982.6 |
| 20260501192519 | 5 | 308 | 1.6 | 8.0 | 0.00 | 0.00 | 0.00 | 69 | 982.5 |
| 20260501191520 | 6 | 261 | 3.2 | 9.7 | 0.00 | 0.00 | 0.00 | 66 | 982.3 |
| 20260501190539 | 6 | 14 | 3.2 | 6.4 | 0.00 | 0.00 | 0.00 | 66 | 981.7 |
| 20260501185517 | 5 | 37 | 3.2 | 16.1 | 0.00 | 0.00 | 0.00 | 69 | 981.9 |
| 20260501184520 | 5 | 259 | 1.6 | 6.4 | 0.00 | 0.00 | 0.00 | 70 | 981.9 |
| 20260501183519 | 4 | 347 | 1.6 | 4.8 | 0.00 | 0.00 | 0.00 | 73 | 982.4 |
| 20260501182520 | 4 | 324 | 1.6 | 4.8 | 0.00 | 0.00 | 0.00 | 72 | 982.5 |
| 20260501181557 | 4 | 35 | 1.6 | 9.7 | 0.00 | 0.00 | 0.00 | 73 | 982.3 |
| 20260501180638 | 4 | 313 | 1.6 | 9.7 | 0.00 | 0.00 | 0.00 | 75 | 982.4 |
| 20260501175520 | 4 | 51 | 1.6 | 4.8 | 0.00 | 0.00 | 0.00 | 77 | 982.7 |
| 20260501174518 | 4 | 38 | 1.6 | 4.8 | 0.00 | 0.00 | 0.00 | 76 | 983.1 |
| 20260501173517 | 4 | 329 | 1.6 | 3.2 | 0.00 | 0.00 | 0.00 | 73 | 983.0 |
| 20260501172539 | 4 | 291 | 1.6 | 3.2 | 0.00 | 0.00 | 0.00 | 69 | 983.0 |
| 20260501171518 | 4 | 300 | 1.6 | 3.2 | 0.00 | 0.00 | 0.00 | 68 | 983.1 |
| 20260501170521 | 5 | 312 | 1.6 | 6.4 | 0.00 | 0.00 | 0.00 | 67 | 983.1 |
| 20260501165518 | 5 | 45 | 3.2 | 6.4 | 0.00 | 0.00 | 0.00 | 67 | 982.9 |
| 20260501164518 | 4 | 16 | 3.2 | 11.3 | 0.00 | 0.00 | 0.00 | 67 | 982.9 |
| 20260501163518 | 4 | 335 | 1.6 | 4.8 | 0.00 | 0.00 | 0.00 | 68 | 983.2 |
| 20260501161519 | 4 | 56 | 3.2 | 6.4 | 0.00 | 0.00 | 0.00 | 68 | 982.8 |
| 20260501160519 | 3 | 7 | 1.6 | 6.4 | 0.00 | 0.00 | 0.00 | 70 | 982.9 |
| 20260501155540 | 3 | 44 | 1.6 | 4.8 | 0.00 | 0.00 | 0.00 | 72 | 983.0 |